Weather History for Oslo, Norway

Change the Weather History Date:

Thursday, February 7, 2013

  Actual Average Record
Temperature  
Mean Temperature 28 °F -  
Max Temperature 39 °F 37 °F 46 °F (1997)
Min Temperature 16 °F 23 °F 16 °F (2013)
Degree Days  
Heating Degree Days 38    
Moisture  
Dew Point 31 °F    
Average Humidity 78    
Maximum Humidity 100    
Minimum Humidity 53    
Precipitation  
Precipitation 0.00 in - - ()
Sea Level Pressure  
Sea Level Pressure 29.85 in    
Wind  
Wind Speed 19 mph ()    
Max Wind Speed 38 mph    
Max Gust Speed 50 mph    
Visibility 6.0 miles    
Events Rain , Snow    
Averages and records for this station are not official NWS values.
T = Trace of Precipitation, MM = Missing Value Source: Averaged Metar Reports

Daily Weather History Graph

Daily Weather History Graph

Search for Another Location

Airport:

Trip Planner

Search our weather history database for the weather conditions in past years. The results will help you decide how hot, cold, wet, or windy it might be!

Date:

Astronomy

Feb. 07, 2013 Rise Set
Actual Time 8:57 AM CET 5:17 PM CET
Civil Twilight 8:09 AM CET 6:05 PM CET
Nautical Twilight 7:17 AM CET 6:56 PM CET
Astronomical Twilight 6:27 AM CET 7:47 PM CET
Moon 6:57 AM CET (2/7) 1:53 PM CET (2/7)
Length of Visible Light 9h 55m
Length of Day
8h 20m
Waning Crescent, 11% of the Moon is Illuminated
Feb 7
Waning Crescent
Feb 10
New
Feb 17
First Quarter
Feb 25
Full
Mar 4
Last Quarter

Hourly Weather History & Observations

Time (CET) Temp. Windchill Dew Point Humidity Pressure Visibility Wind Dir Wind Speed Gust Speed Precip Events Conditions
12:20 AM 37.4 °F 25.0 °F 33.8 °F 87% 29.77 in 6.2 mi North 29.9 mph - N/A Rain Light Rain Showers
12:50 AM 39.2 °F 26.8 °F 33.8 °F 81% 29.77 in 6.2 mi North 33.4 mph - N/A   Partly Cloudy
1:00 AM 24 °F - 20 °F 81%  in - WNW 4.5 mph - -  
1:20 AM 39.2 °F 26.6 °F 32.0 °F 75% 29.77 in 6.2 mi North 34.5 mph - N/A   Mostly Cloudy
1:50 AM 39.2 °F 27.2 °F 30.2 °F 70% 29.77 in 6.2 mi North 31.1 mph - N/A   Mostly Cloudy
2:20 AM 37.4 °F 25.6 °F 33.8 °F 87% 29.80 in 6.2 mi NNE 26.5 mph - N/A Rain Light Rain Showers
2:50 AM 37.4 °F 25.0 °F 33.8 °F 87% 29.77 in 6.2 mi North 29.9 mph - N/A   Scattered Clouds
3:20 AM 33.8 °F 19.6 °F 33.8 °F 100% 29.80 in 1.8 mi North 32.2 mph 49.5 mph N/A Rain , Snow Rain Showers
3:50 AM 37.4 °F 26.1 °F 35.6 °F 93% 29.80 in 6.2 mi NNE 24.2 mph - N/A Rain , Snow Light Rain
4:20 AM 37.4 °F 25.4 °F 35.6 °F 93% 29.77 in 6.2 mi North 27.6 mph - N/A   Mostly Cloudy
4:50 AM 35.6 °F 22.1 °F 35.6 °F 100% 29.80 in 3.7 mi NNE 32.2 mph - N/A Rain Light Rain Showers
5:20 AM 39.2 °F 26.1 °F 33.8 °F 81% 29.77 in 6.2 mi North 38.0 mph - N/A   Mostly Cloudy
5:50 AM 39.2 °F 27.0 °F 35.6 °F 87% 29.80 in 6.2 mi North 32.2 mph - N/A   Mostly Cloudy
6:20 AM 37.4 °F 24.6 °F 33.8 °F 87% 29.80 in 6.2 mi NNE 32.2 mph - N/A Rain Light Rain
6:50 AM 39.2 °F 27.6 °F 35.6 °F 87% 29.80 in 6.2 mi North 28.8 mph - N/A   Scattered Clouds
7:00 AM 24 °F - 20 °F 79%  in - North 4.5 mph - -  
7:20 AM 39.2 °F 27.4 °F 35.6 °F 87% 29.80 in 6.2 mi North 29.9 mph - N/A   Scattered Clouds
7:50 AM 39.2 °F 27.8 °F 35.6 °F 87% 29.80 in 6.2 mi North 27.6 mph - N/A   Partly Cloudy
8:20 AM 39.2 °F 28.7 °F 33.8 °F 81% 29.80 in 6.2 mi North 23.0 mph - N/A   Partly Cloudy
8:50 AM 39.2 °F 28.5 °F 33.8 °F 81% 29.83 in 6.2 mi NNE 24.2 mph - N/A   Scattered Clouds
9:20 AM 37.4 °F 26.9 °F 33.8 °F 87% 29.83 in 6.2 mi NNE 20.7 mph - N/A Rain Light Rain Showers
9:50 AM 37.4 °F 26.9 °F 33.8 °F 87% 29.83 in 6.2 mi NNE 20.7 mph - N/A Rain Light Rain Showers
10:20 AM 37.4 °F 27.5 °F 35.6 °F 93% 29.83 in 6.2 mi NNE 18.4 mph - N/A Rain Light Rain Showers
10:50 AM 39.2 °F 30.5 °F 33.8 °F 81% 29.83 in 6.2 mi NNE 16.1 mph - N/A   Scattered Clouds
11:20 AM 37.4 °F 28.5 °F 33.8 °F 87% 29.83 in 6.2 mi North 15.0 mph - N/A Rain Light Rain Showers
11:50 AM 37.4 °F 28.5 °F 33.8 °F 87% 29.83 in 6.2 mi NNW 15.0 mph - N/A   Partly Cloudy
12:20 PM 37.4 °F 28.9 °F 35.6 °F 93% 29.86 in 4.3 mi North 13.8 mph - N/A Rain Light Rain Showers
12:50 PM 39.2 °F 32.5 °F 33.8 °F 81% 29.86 in 6.2 mi NNE 10.4 mph - N/A   Scattered Clouds
1:00 PM 29 °F - 19 °F 53%  in - Calm Calm - -  
1:20 PM 41.0 °F 34.3 °F 35.6 °F 81% 29.86 in 6.2 mi NE 11.5 mph - N/A   Scattered Clouds
1:50 PM 41.0 °F 33.9 °F 33.8 °F 76% 29.86 in 6.2 mi ENE 12.7 mph - N/A   Scattered Clouds
2:20 PM 39.2 °F 32.0 °F 32.0 °F 75% 29.86 in 6.2 mi East 11.5 mph - N/A   Scattered Clouds
2:50 PM 41.0 °F 33.1 °F 32.0 °F 70% 29.86 in 6.2 mi East 15.0 mph - N/A   Partly Cloudy
3:20 PM 39.2 °F 30.8 °F 32.0 °F 75% 29.86 in 6.2 mi ENE 15.0 mph - N/A   Scattered Clouds
3:50 PM 39.2 °F 31.6 °F 30.2 °F 70% 29.86 in 6.2 mi ENE 12.7 mph - N/A   Partly Cloudy
4:20 PM 39.2 °F 31.6 °F 30.2 °F 70% 29.89 in 6.2 mi East 12.7 mph - N/A   Partly Cloudy
4:50 PM 39.2 °F 32.5 °F 30.2 °F 70% 29.89 in 6.2 mi East 10.4 mph - N/A   Partly Cloudy
5:20 PM 39.2 °F 32.5 °F 30.2 °F 70% 29.89 in 6.2 mi ENE 10.4 mph - N/A   Scattered Clouds
5:50 PM 39.2 °F 33.0 °F 30.2 °F 70% 29.89 in 6.2 mi ENE 9.2 mph - N/A   Scattered Clouds
6:20 PM 39.2 °F 32.5 °F 28.4 °F 65% 29.92 in 6.2 mi ENE 10.4 mph - N/A   Overcast
6:50 PM 39.2 °F 32.5 °F 28.4 °F 65% 29.92 in 6.2 mi ENE 10.4 mph - N/A   Mostly Cloudy
7:00 PM 16 °F - 13 °F 83%  in - WSW 2.2 mph - -  
7:20 PM 39.2 °F 32.5 °F 28.4 °F 65% 29.92 in 6.2 mi ENE 10.4 mph - N/A   Mostly Cloudy
7:50 PM 39.2 °F 33.6 °F 28.4 °F 65% 29.92 in 6.2 mi East 8.1 mph - N/A   Mostly Cloudy
8:20 PM 37.4 °F 30.3 °F 28.4 °F 70% 29.92 in 6.2 mi East 10.4 mph - N/A   Mostly Cloudy
8:50 PM 37.4 °F 32.1 °F 28.4 °F 70% 29.92 in 6.2 mi ENE 6.9 mph - N/A   Scattered Clouds
9:20 PM 37.4 °F 32.1 °F 28.4 °F 70% 29.92 in 6.2 mi East 6.9 mph - N/A   Partly Cloudy
9:50 PM 37.4 °F 31.4 °F 28.4 °F 70% 29.92 in 6.2 mi ENE 8.1 mph - N/A   Mostly Cloudy
10:20 PM 37.4 °F 32.1 °F 28.4 °F 70% 29.95 in 6.2 mi ESE 6.9 mph - N/A   Mostly Cloudy
10:50 PM 37.4 °F 31.4 °F 26.6 °F 65% 29.95 in 6.2 mi East 8.1 mph - N/A   Mostly Cloudy
11:20 PM 37.4 °F - 26.6 °F 65% 29.95 in 6.2 mi East 2.3 mph - N/A   Mostly Cloudy
11:50 PM 37.4 °F 32.8 °F 26.6 °F 65% 29.95 in 6.2 mi East 5.8 mph - N/A   Mostly Cloudy